North Adams, MA

2:59 PM EDT on July 27, 2017 (GMT -0400)
Harriman And West

Weather History for KAQW - February, 2014

Change the Weather History Date:

Tuesday, February 18, 2014

  Actual Average Record
Temperature  
Mean Temperature 16 °F -  
Max Temperature 26 °F 33 °F 61 °F (2008)
Min Temperature 6 °F 16 °F -13 °F (2015)
Degree Days  
Heating Degree Days 49    
Moisture  
Dew Point 13 °F    
Average Humidity 74    
Maximum Humidity 89    
Minimum Humidity 33    
Precipitation  
Precipitation 0.04 in - - ()
Sea Level Pressure  
Sea Level Pressure 30.06 in    
Wind  
Wind Speed 9 mph (East)    
Max Wind Speed 18 mph    
Max Gust Speed 32 mph    
Visibility 4 miles    
Events Fog , Snow    
Averages and records for this station are not official NWS values.
T = Trace of Precipitation, MM = Missing Value Source: NWS Daily Summary

Daily Weather History Graph

Daily Weather History Graph

Search for Another Location

Airport or City:

Trip Planner

Search our weather history database for the weather conditions in past years. The results will help you decide how hot, cold, wet, or windy it might be!

Date:

Astronomy

Feb. 18, 2014 Rise Set
Actual Time 6:45 AM EST 5:28 PM EST
Civil Twilight 6:16 AM EST 5:57 PM EST
Nautical Twilight 5:43 AM EST 6:30 PM EST
Astronomical Twilight 5:11 AM EST 7:02 PM EST
Moon 9:25 PM EST (2/18) 8:10 AM EST (2/18)
Length of Visible Light 11h 40m
Length of Day
10h 42m
Waning Gibbous, 87% of the Moon is Illuminated
Feb 18
Waning Gibbous
Feb 22
Last Quarter
Mar 1
New
Mar 8
First Quarter
Mar 16
Full

Hourly Weather History & Observations

Time (EST) Temp. Windchill Dew Point Humidity Pressure Visibility Wind Dir Wind Speed Gust Speed Precip Events Conditions
12:52 AM 6.1 °F -2.8 °F -4.0 °F 63% 30.33 in 10.0 mi ESE 4.6 mph - N/A   Clear
1:52 AM 9.0 °F -5.9 °F -2.9 °F 59% 30.29 in 10.0 mi ESE 11.5 mph - N/A   Clear
2:52 AM 10.9 °F -1.8 °F -2.9 °F 54% 30.27 in 10.0 mi South 9.2 mph - N/A   Clear
3:52 AM 18.0 °F 3.1 °F -4.0 °F 38% 30.24 in 10.0 mi ESE 16.1 mph - N/A   Overcast
4:52 AM 19.9 °F 4.8 °F -5.1 °F 33% 30.25 in 10.0 mi East 18.4 mph 32.2 mph N/A   Overcast
5:52 AM 19.0 °F 7.5 °F -5.1 °F 34% 30.23 in 10.0 mi East 10.4 mph 21.9 mph N/A   Overcast
6:52 AM 19.0 °F 6.1 °F -4.0 °F 36% 30.22 in 10.0 mi East 12.7 mph - N/A   Overcast
7:33 AM 18.0 °F 3.6 °F 1.0 °F 48% 30.17 in 4.0 mi ESE 15.0 mph 20.7 mph 0.00 in Snow Light Snow
7:39 AM 18.0 °F 4.8 °F 3.0 °F 52% 30.16 in 1.8 mi ESE 12.7 mph 21.9 mph 0.00 in Snow Light Snow
7:50 AM 17.6 °F 5.7 °F 6.8 °F 63% 30.17 in 1.0 mi ESE 10.4 mph - 0.00 in Snow Light Snow
7:52 AM 17.1 °F 3.0 °F 7.0 °F 65% 30.22 in 1.0 mi East 13.8 mph - 0.00 in Snow Light Snow
8:13 AM 16.0 °F 5.3 °F 9.0 °F 74% 30.15 in 2.0 mi East 8.1 mph - 0.00 in Snow Light Snow
8:23 AM 17.1 °F 5.8 °F 9.0 °F 71% 30.15 in 1.5 mi ENE 9.2 mph - 0.00 in Snow Light Snow
8:31 AM 18.0 °F 11.1 °F 10.0 °F 71% 30.14 in 1.2 mi Variable 4.6 mph - 0.00 in Snow Light Snow
8:42 AM 17.1 °F 11.7 °F 10.9 °F 77% 30.14 in 0.8 mi Variable 3.5 mph - 0.00 in Snow Light Snow
8:52 AM 17.1 °F 7.6 °F 10.9 °F 77% 30.19 in 1.8 mi Variable 6.9 mph - 0.00 in Snow Light Snow
9:08 AM 17.1 °F 8.7 °F 10.9 °F 77% 30.14 in 1.0 mi ESE 5.8 mph - 0.00 in Snow Light Snow
9:15 AM 17.1 °F 5.0 °F 10.9 °F 77% 30.13 in 0.8 mi ESE 10.4 mph - 0.00 in Snow Light Snow
9:29 AM 18.0 °F 11.1 °F 12.0 °F 78% 30.12 in 1.2 mi Variable 4.6 mph - 0.00 in Snow Light Snow
9:36 AM 19.0 °F 9.0 °F 12.0 °F 74% 30.11 in 2.0 mi East 8.1 mph - 0.00 in Snow Light Snow
9:44 AM 19.0 °F 6.8 °F 12.0 °F 74% 30.11 in 1.8 mi ENE 11.5 mph - 0.00 in Snow Light Snow
9:52 AM 19.0 °F 7.5 °F 12.0 °F 74% 30.15 in 1.0 mi ENE 10.4 mph 19.6 mph 0.00 in Snow Light Snow
10:11 AM 19.9 °F 8.6 °F 12.9 °F 74% 30.10 in 1.5 mi ENE 10.4 mph - 0.00 in Snow Light Snow
10:31 AM 21.0 °F 13.4 °F 14.0 °F 74% 30.08 in 3.0 mi ESE 5.8 mph - 0.00 in Snow Light Snow
10:52 AM 21.0 °F 6.6 °F 12.9 °F 71% 30.11 in 5.0 mi East 17.3 mph 24.2 mph 0.00 in Snow Light Snow
11:26 AM 21.9 °F 10.4 °F 12.9 °F 68% 30.05 in 10.0 mi ESE 11.5 mph 17.3 mph 0.00 in   Overcast
11:52 AM 21.9 °F 10.4 °F 12.9 °F 68% 30.07 in 6.0 mi ENE 11.5 mph 21.9 mph 0.00 in Snow Light Snow
12:01 PM 21.0 °F 8.1 °F 14.0 °F 74% 30.01 in 1.8 mi ENE 13.8 mph 20.7 mph 0.00 in Snow Light Snow
12:07 PM 21.0 °F 8.6 °F 15.1 °F 78% 30.01 in 0.8 mi East 12.7 mph 20.7 mph 0.00 in Snow Light Snow
12:28 PM 21.0 °F 8.6 °F 16.0 °F 81% 29.99 in 0.5 mi ENE 12.7 mph 20.7 mph 0.01 in Snow Snow
12:37 PM 21.0 °F 9.3 °F 16.0 °F 81% 29.99 in 0.2 mi East 11.5 mph 23.0 mph 0.01 in Snow Heavy Snow
12:52 PM 21.0 °F 8.6 °F 16.0 °F 81% 30.03 in 0.5 mi East 12.7 mph 19.6 mph 0.01 in Snow Snow
1:16 PM 21.9 °F 11.0 °F 16.0 °F 78% 29.97 in 0.5 mi East 10.4 mph 21.9 mph 0.01 in Snow Snow
1:42 PM 21.9 °F 11.7 °F 17.1 °F 82% 29.96 in 0.5 mi NE 9.2 mph - 0.01 in Snow Snow
1:52 PM 21.9 °F 11.7 °F 17.1 °F 82% 29.99 in 0.5 mi ENE 9.2 mph 17.3 mph 0.01 in Snow Snow
2:29 PM 23.0 °F 12.4 °F 18.0 °F 81% 29.95 in 0.2 mi ENE 10.4 mph - 0.01 in Snow Heavy Snow
2:37 PM 23.0 °F 12.4 °F 19.0 °F 85% 29.95 in 0.5 mi ENE 10.4 mph - 0.01 in Fog , Snow Light Snow
2:45 PM 23.0 °F 11.7 °F 19.0 °F 85% 29.95 in 0.2 mi ENE 11.5 mph - 0.02 in Fog , Snow Light Snow
2:52 PM 23.0 °F 13.1 °F 19.0 °F 85% 29.99 in 0.5 mi ENE 9.2 mph - 0.02 in Fog , Snow Light Snow
3:07 PM 23.0 °F 12.4 °F 19.0 °F 85% 29.95 in 0.8 mi ENE 10.4 mph - 0.00 in Snow Light Snow
3:16 PM 23.0 °F 12.4 °F 19.0 °F 85% 29.95 in 1.0 mi ENE 10.4 mph - 0.00 in Snow Light Snow
3:39 PM 24.1 °F 16.0 °F 19.0 °F 81% 29.95 in 1.5 mi ENE 6.9 mph - 0.00 in Snow Light Snow
3:52 PM 24.1 °F 18.2 °F 19.0 °F 81% 29.98 in 2.0 mi Variable 4.6 mph - 0.00 in Snow Light Snow
4:07 PM 24.1 °F 18.2 °F 19.0 °F 81% 29.95 in 3.0 mi East 4.6 mph - 0.00 in Snow Light Snow
4:30 PM 24.1 °F 19.7 °F 19.0 °F 81% 29.95 in 1.8 mi Variable 3.5 mph - 0.00 in Snow Light Snow
4:50 PM 24.8 °F 17.9 °F 19.4 °F 80% 29.95 in 2.5 mi East 5.8 mph - 0.00 in Snow Light Snow
4:52 PM 24.1 °F 18.2 °F 19.9 °F 84% 29.99 in 2.5 mi East 4.6 mph - 0.00 in Snow Light Snow
4:59 PM 24.1 °F 19.7 °F 19.9 °F 84% 29.95 in 3.0 mi ENE 3.5 mph - 0.00 in Snow Light Snow
5:07 PM 24.1 °F 19.7 °F 19.9 °F 84% 29.96 in 2.5 mi ENE 3.5 mph - 0.00 in Snow Light Snow
5:16 PM 24.1 °F - 19.9 °F 84% 29.96 in 3.0 mi Calm Calm - 0.00 in Snow Light Snow
5:29 PM 24.1 °F - 19.9 °F 84% 29.97 in 2.5 mi Calm Calm - 0.00 in Snow Light Snow
5:36 PM 24.1 °F - 19.9 °F 84% 29.97 in 4.0 mi Calm Calm - 0.00 in Snow Light Snow
5:52 PM 24.1 °F - 19.9 °F 84% 30.01 in 3.0 mi Calm Calm - 0.00 in Snow Light Snow
5:59 PM 24.1 °F - 19.9 °F 84% 29.98 in 2.0 mi Calm Calm - 0.00 in Snow Light Snow
6:14 PM 23.0 °F - 19.9 °F 88% 29.97 in 3.0 mi Calm Calm - 0.00 in Snow Light Snow
6:33 PM 21.9 °F 17.2 °F 19.0 °F 89% 29.98 in 10.0 mi WSW 3.5 mph - 0.00 in   Overcast
6:52 PM 23.0 °F 18.4 °F 19.9 °F 88% 30.03 in 10.0 mi WNW 3.5 mph - 0.00 in   Overcast
7:52 PM 24.1 °F 18.2 °F 19.9 °F 84% 30.04 in 10.0 mi WNW 4.6 mph - N/A   Overcast
8:52 PM 26.1 °F 16.8 °F 21.9 °F 84% 30.05 in 10.0 mi West 9.2 mph - N/A   Overcast
9:52 PM 26.1 °F 16.2 °F 19.0 °F 75% 30.07 in 10.0 mi West 10.4 mph - N/A   Mostly Cloudy
10:12 PM 24.1 °F 13.1 °F 18.0 °F 77% 30.02 in 10.0 mi West 11.5 mph - N/A   Scattered Clouds
10:52 PM 25.0 °F 17.1 °F 18.0 °F 75% 30.06 in 10.0 mi WNW 6.9 mph - N/A   Clear
11:52 PM 16.0 °F 6.3 °F 12.9 °F 88% 30.06 in 10.0 mi West 6.9 mph - N/A   Clear